TimeCDT,TemperatureF,Dew PointF,Humidity,Sea Level PressureIn,VisibilityMPH,Wind Direction,Wind SpeedMPH,Gust SpeedMPH,PrecipitationIn,Events,Conditions,WindDirDegrees,DateUTC
12:54 AM,80.1,64.9,60,30.04,10.0,South,8.1,-,N/A,,Clear,170,2013-06-23 05:54:00
1:54 AM,75.0,66.0,73,30.03,10.0,South,5.8,-,N/A,,Partly Cloudy,190,2013-06-23 06:54:00
2:54 AM,77.0,64.9,66,30.01,10.0,South,9.2,-,N/A,,Partly Cloudy,180,2013-06-23 07:54:00
3:54 AM,75.9,64.9,69,30.02,10.0,South,8.1,-,N/A,,Partly Cloudy,180,2013-06-23 08:54:00
4:54 AM,73.0,66.0,79,30.03,10.0,South,6.9,-,N/A,,Partly Cloudy,190,2013-06-23 09:54:00
5:54 AM,73.9,64.9,73,30.05,10.0,South,6.9,-,N/A,,Scattered Clouds,170,2013-06-23 10:54:00
6:54 AM,75.0,64.9,71,30.07,10.0,SSE,5.8,-,N/A,,Scattered Clouds,150,2013-06-23 11:54:00
7:41 AM,77.0,66.2,69,30.10,10.0,South,8.1,-,N/A,,Scattered Clouds,180,2013-06-23 12:41:00
7:54 AM,78.8,66.2,65,30.10,10.0,South,6.9,-,N/A,,Scattered Clouds,170,2013-06-23 12:54:00
8:54 AM,81.0,66.9,62,30.10,10.0,South,9.2,-,N/A,,Scattered Clouds,180,2013-06-23 13:54:00
9:54 AM,84.0,66.9,56,30.10,10.0,SSW,10.4,-,N/A,,Partly Cloudy,210,2013-06-23 14:54:00
10:54 AM,86.0,68.0,55,30.09,10.0,South,12.7,-,N/A,,Scattered Clouds,180,2013-06-23 15:54:00
11:54 AM,87.1,68.0,53,30.07,10.0,SSW,11.5,18.4,N/A,,Scattered Clouds,200,2013-06-23 16:54:00
12:54 PM,88.0,69.1,53,30.07,10.0,SSW,8.1,-,N/A,,Scattered Clouds,200,2013-06-23 17:54:00
1:54 PM,90.0,66.9,46,30.06,10.0,SSE,9.2,-,N/A,,Scattered Clouds,150,2013-06-23 18:54:00
2:54 PM,89.1,64.9,45,30.04,10.0,Variable,4.6,-,N/A,,Scattered Clouds,0,2013-06-23 19:54:00
3:54 PM,91.0,64.9,42,30.03,10.0,South,6.9,-,N/A,,Scattered Clouds,170,2013-06-23 20:54:00
4:54 PM,90.0,64.9,43,30.01,10.0,South,5.8,-,N/A,,Scattered Clouds,190,2013-06-23 21:54:00
5:54 PM,89.1,64.9,45,30.00,10.0,SSE,11.5,-,N/A,,Mostly Cloudy,160,2013-06-23 22:54:00
6:54 PM,87.1,66.0,49,30.01,10.0,South,11.5,-,N/A,,Mostly Cloudy,180,2013-06-23 23:54:00
7:54 PM,86.0,64.9,49,30.03,10.0,South,6.9,-,N/A,,Mostly Cloudy,170,2013-06-24 00:54:00
8:54 PM,84.0,66.0,55,30.04,10.0,South,6.9,-,N/A,,Scattered Clouds,170,2013-06-24 01:54:00
9:54 PM,82.0,66.9,60,30.06,10.0,South,4.6,-,N/A,,Scattered Clouds,170,2013-06-24 02:54:00
10:54 PM,81.0,66.9,62,30.05,10.0,South,5.8,-,N/A,,Scattered Clouds,170,2013-06-24 03:54:00
11:54 PM,79.0,68.0,69,30.06,10.0,South,4.6,-,N/A,,Partly Cloudy,190,2013-06-24 04:54:00